Time,TemperatureF,DewpointF,PressureIn,WindDirection,WindDirectionDegrees,WindSpeedMPH,WindSpeedGustMPH,Humidity,HourlyPrecipIn,Conditions,Clouds,dailyrainin,SoftwareType,DateUTC
2015-05-05 00:04:00,47.5,33.0,29.74,ESE,112,2.7,5.8,57,0.00,,---,0.00,VWS V14.01,2015-05-05 07:04:00,
2015-05-05 00:09:00,47.5,33.0,29.74,SE,136,5.4,7.2,57,0.00,,---,0.00,VWS V14.01,2015-05-05 07:09:00,
2015-05-05 00:14:00,47.5,33.0,29.74,East,81,3.1,4.9,57,0.00,,---,0.00,VWS V14.01,2015-05-05 07:14:00,
2015-05-05 00:19:00,47.3,32.8,29.74,SSE,157,8.7,8.7,57,0.00,,---,0.00,VWS V14.01,2015-05-05 07:19:00,
2015-05-05 00:24:00,47.3,32.8,29.74,East,84,0.0,5.4,57,0.00,,---,0.00,VWS V14.01,2015-05-05 07:24:00,
2015-05-05 00:29:00,47.1,32.7,29.74,ENE,71,0.0,5.4,57,0.00,,---,0.00,VWS V14.01,2015-05-05 07:29:00,
2015-05-05 00:34:00,47.1,33.1,29.74,ENE,61,3.1,7.6,58,0.00,,---,0.00,VWS V14.01,2015-05-05 07:34:00,
2015-05-05 00:39:00,46.8,33.2,29.74,East,91,4.0,7.6,59,0.00,,---,0.00,VWS V14.01,2015-05-05 07:39:00,
2015-05-05 00:44:00,46.6,33.0,29.74,SE,129,2.7,7.6,59,0.00,,---,0.00,VWS V14.01,2015-05-05 07:44:00,
2015-05-05 00:49:00,46.6,32.6,29.74,East,89,3.1,7.6,58,0.00,,---,0.00,VWS V14.01,2015-05-05 07:49:00,
2015-05-05 00:54:00,46.4,32.4,29.74,East,85,4.5,5.4,58,0.00,,---,0.00,VWS V14.01,2015-05-05 07:54:00,
2015-05-05 00:59:00,46.4,32.4,29.74,East,83,4.9,6.3,58,0.00,,---,0.00,VWS V14.01,2015-05-05 07:59:00,
2015-05-05 01:05:00,46.4,32.4,29.74,ESE,114,5.4,5.8,58,0.00,,---,0.00,VWS V14.01,2015-05-05 08:05:00,
2015-05-05 01:10:00,46.4,32.0,29.77,East,94,4.0,5.8,57,0.00,,---,0.00,VWS V14.01,2015-05-05 08:10:00,
2015-05-05 01:15:00,46.4,32.0,29.77,East,91,5.4,5.8,57,0.00,,---,0.00,VWS V14.01,2015-05-05 08:15:00,
2015-05-05 01:20:00,46.4,32.0,29.77,East,82,4.9,6.3,57,0.00,,---,0.00,VWS V14.01,2015-05-05 08:20:00,
2015-05-05 01:25:00,46.2,31.8,29.74,ESE,117,5.4,6.3,57,0.00,,---,0.00,VWS V14.01,2015-05-05 08:25:00,
2015-05-05 01:30:00,46.0,31.7,29.74,ESE,113,5.4,6.3,57,0.00,,---,0.00,VWS V14.01,2015-05-05 08:30:00,
2015-05-05 01:35:00,46.0,31.2,29.74,SE,127,2.7,6.3,56,0.00,,---,0.00,VWS V14.01,2015-05-05 08:35:00,
2015-05-05 01:40:00,46.0,31.2,29.77,ENE,73,3.1,4.0,56,0.00,,---,0.00,VWS V14.01,2015-05-05 08:40:00,
2015-05-05 01:45:00,45.9,31.1,29.77,ESE,123,6.3,8.3,56,0.00,,---,0.00,VWS V14.01,2015-05-05 08:45:00,
2015-05-05 01:50:00,45.9,31.1,29.77,ESE,115,0.0,0.0,56,0.00,,---,0.00,VWS V14.01,2015-05-05 08:50:00,
2015-05-05 01:55:00,45.7,30.9,29.77,SE,137,0.0,5.4,56,0.00,,---,0.00,VWS V14.01,2015-05-05 08:55:00,
2015-05-05 02:00:00,45.5,30.7,29.77,NNE,26,3.1,4.0,56,0.00,,---,0.00,VWS V14.01,2015-05-05 09:00:00,
2015-05-05 02:05:00,45.3,31.0,29.77,East,91,2.2,5.4,57,0.00,,---,0.00,VWS V14.01,2015-05-05 09:05:00,
2015-05-05 02:10:00,45.1,30.8,29.77,SE,139,0.0,0.0,57,0.00,,---,0.00,VWS V14.01,2015-05-05 09:10:00,
2015-05-05 02:15:00,45.1,30.8,29.77,SE,135,0.0,0.0,57,0.00,,---,0.00,VWS V14.01,2015-05-05 09:15:00,
2015-05-05 02:20:00,44.8,30.5,29.77,ENE,70,0.0,0.0,57,0.00,,---,0.00,VWS V14.01,2015-05-05 09:20:00,
2015-05-05 02:25:00,44.6,30.8,29.77,East,79,0.0,3.1,58,0.00,,---,0.00,VWS V14.01,2015-05-05 09:25:00,
2015-05-05 02:30:00,44.6,30.8,29.77,East,96,0.0,0.0,58,0.00,,---,0.00,VWS V14.01,2015-05-05 09:30:00,
2015-05-05 02:35:00,44.4,31.0,29.77,ENE,77,0.0,3.1,59,0.00,,---,0.00,VWS V14.01,2015-05-05 09:35:00,
2015-05-05 02:40:00,44.2,30.8,29.77,East,95,0.0,0.0,59,0.00,,---,0.00,VWS V14.01,2015-05-05 09:40:00,
2015-05-05 02:45:00,44.2,30.8,29.77,East,83,4.5,6.3,59,0.00,,---,0.00,VWS V14.01,2015-05-05 09:45:00,
2015-05-05 02:50:00,44.2,30.8,29.77,NNE,16,3.1,3.1,59,0.00,,---,0.00,VWS V14.01,2015-05-05 09:50:00,
2015-05-05 02:55:00,44.2,31.2,29.77,East,85,0.0,4.9,60,0.00,,---,0.00,VWS V14.01,2015-05-05 09:55:00,
2015-05-05 03:00:00,44.2,31.2,29.77,East,97,3.6,3.6,60,0.00,,---,0.00,VWS V14.01,2015-05-05 10:00:00,
2015-05-05 03:05:00,44.1,31.1,29.77,SE,144,3.6,4.0,60,0.00,,---,0.00,VWS V14.01,2015-05-05 10:05:00,
2015-05-05 03:11:00,44.1,31.1,29.77,ESE,107,2.7,4.0,60,0.00,,---,0.00,VWS V14.01,2015-05-05 10:11:00,
2015-05-05 03:16:00,44.1,31.1,29.77,ENE,73,0.0,4.9,60,0.00,,---,0.00,VWS V14.01,2015-05-05 10:16:00,
2015-05-05 03:21:00,44.1,31.1,29.77,East,95,2.7,5.4,60,0.00,,---,0.00,VWS V14.01,2015-05-05 10:21:00,
2015-05-05 03:26:00,44.1,31.1,29.77,East,79,2.7,5.8,60,0.00,,---,0.00,VWS V14.01,2015-05-05 10:26:00,
2015-05-05 03:31:00,43.7,30.7,29.77,ENE,75,0.0,0.0,60,0.00,,---,0.00,VWS V14.01,2015-05-05 10:31:00,
2015-05-05 03:36:00,43.3,30.4,29.77,ENE,77,0.0,3.6,60,0.00,,---,0.00,VWS V14.01,2015-05-05 10:36:00,
2015-05-05 03:41:00,43.2,30.6,29.77,SE,126,4.0,5.4,61,0.00,,---,0.00,VWS V14.01,2015-05-05 10:41:00,
2015-05-05 03:46:00,43.3,31.2,29.77,ESE,103,2.7,5.4,62,0.00,,---,0.00,VWS V14.01,2015-05-05 10:46:00,
2015-05-05 03:51:00,43.3,31.2,29.77,ESE,120,2.7,3.6,62,0.00,,---,0.00,VWS V14.01,2015-05-05 10:51:00,
2015-05-05 03:56:00,43.5,31.4,29.77,SE,126,4.9,6.3,62,0.00,,---,0.00,VWS V14.01,2015-05-05 10:56:00,
2015-05-05 04:01:00,43.5,31.8,29.77,ESE,113,4.9,4.9,63,0.00,,---,0.00,VWS V14.01,2015-05-05 11:01:00,
2015-05-05 04:06:00,43.5,31.8,29.77,East,95,3.6,5.4,63,0.00,,---,0.00,VWS V14.01,2015-05-05 11:06:00,
2015-05-05 04:11:00,43.5,31.4,29.77,North,5,0.0,5.8,62,0.00,,---,0.00,VWS V14.01,2015-05-05 11:11:00,
2015-05-05 04:16:00,43.3,31.2,29.77,East,92,0.0,5.8,62,0.00,,---,0.00,VWS V14.01,2015-05-05 11:16:00,
2015-05-05 04:21:00,43.0,30.9,29.77,East,79,0.0,2.7,62,0.00,,---,0.00,VWS V14.01,2015-05-05 11:21:00,
2015-05-05 04:26:00,42.4,30.8,29.77,NE,46,0.0,2.7,63,0.00,,---,0.00,VWS V14.01,2015-05-05 11:26:00,
2015-05-05 04:31:00,42.1,31.2,29.77,North,353,2.7,4.0,65,0.00,,---,0.00,VWS V14.01,2015-05-05 11:31:00,
2015-05-05 04:36:00,41.7,30.8,29.77,ENE,78,0.0,4.0,65,0.00,,---,0.00,VWS V14.01,2015-05-05 11:36:00,
2015-05-05 04:41:00,41.5,31.0,29.77,ENE,76,3.1,3.1,66,0.00,,---,0.00,VWS V14.01,2015-05-05 11:41:00,
2015-05-05 04:46:00,41.7,31.2,29.77,SE,143,0.0,4.9,66,0.00,,---,0.00,VWS V14.01,2015-05-05 11:46:00,
2015-05-05 04:51:00,42.1,31.6,29.77,South,177,0.0,0.0,66,0.00,,---,0.00,VWS V14.01,2015-05-05 11:51:00,
2015-05-05 04:56:00,41.7,31.2,29.77,South,179,0.0,3.6,66,0.00,,---,0.00,VWS V14.01,2015-05-05 11:56:00,
2015-05-05 05:01:00,41.2,31.1,29.77,SE,128,3.6,4.9,67,0.00,,---,0.00,VWS V14.01,2015-05-05 12:01:00,
2015-05-05 05:06:00,40.8,31.1,29.77,East,90,3.1,4.9,68,0.00,,---,0.00,VWS V14.01,2015-05-05 12:06:00,
2015-05-05 05:12:00,40.6,30.9,29.77,ENE,58,0.0,2.2,68,0.00,,---,0.00,VWS V14.01,2015-05-05 12:12:00,
2015-05-05 05:17:00,40.6,31.3,29.77,ENE,71,2.7,5.4,69,0.00,,---,0.00,VWS V14.01,2015-05-05 12:17:00,
2015-05-05 05:22:00,40.8,31.5,29.77,ESE,113,0.0,3.6,69,0.00,,---,0.00,VWS V14.01,2015-05-05 12:22:00,
2015-05-05 05:27:00,41.4,31.6,29.77,SSE,160,0.0,5.4,68,0.00,,---,0.00,VWS V14.01,2015-05-05 12:27:00,
2015-05-05 05:32:00,41.9,31.8,29.77,NNW,327,0.0,6.3,67,0.00,,---,0.00,VWS V14.01,2015-05-05 12:32:00,
2015-05-05 05:37:00,42.1,31.6,29.77,ESE,118,3.1,6.3,66,0.00,,---,0.00,VWS V14.01,2015-05-05 12:37:00,
2015-05-05 05:42:00,41.7,31.2,29.77,SE,127,0.0,4.9,66,0.00,,---,0.00,VWS V14.01,2015-05-05 12:42:00,
2015-05-05 05:47:00,41.7,31.2,29.77,ENE,73,0.0,5.4,66,0.00,,---,0.00,VWS V14.01,2015-05-05 12:47:00,
2015-05-05 05:52:00,41.2,31.1,29.77,SSE,152,7.2,7.2,67,0.00,,---,0.00,VWS V14.01,2015-05-05 12:52:00,
2015-05-05 05:57:00,40.6,30.5,29.77,ENE,58,0.0,7.2,67,0.00,,---,0.00,VWS V14.01,2015-05-05 12:57:00,
2015-05-05 06:02:00,40.3,30.6,29.77,NE,45,0.0,3.1,68,0.00,,---,0.00,VWS V14.01,2015-05-05 13:02:00,
2015-05-05 06:07:00,39.9,30.6,29.77,SE,137,4.0,5.4,69,0.00,,---,0.00,VWS V14.01,2015-05-05 13:07:00,
2015-05-05 06:12:00,39.7,30.4,29.77,East,90,0.0,2.7,69,0.00,,---,0.00,VWS V14.01,2015-05-05 13:12:00,
2015-05-05 06:17:00,39.6,30.6,29.77,NNE,23,0.0,4.0,70,0.00,,---,0.00,VWS V14.01,2015-05-05 13:17:00,
2015-05-05 06:22:00,39.4,30.8,29.77,NNE,28,2.7,2.7,71,0.00,,---,0.00,VWS V14.01,2015-05-05 13:22:00,
2015-05-05 06:27:00,39.2,30.6,29.77,North,0,0.0,2.7,71,0.00,,---,0.00,VWS V14.01,2015-05-05 13:27:00,
2015-05-05 06:32:00,39.0,30.8,29.77,East,79,0.0,0.0,72,0.00,,---,0.00,VWS V14.01,2015-05-05 13:32:00,
2015-05-05 06:37:00,39.2,31.0,29.77,East,82,3.6,3.6,72,0.00,,---,0.00,VWS V14.01,2015-05-05 13:37:00,
2015-05-05 06:42:00,39.4,31.1,29.77,NNE,19,0.0,4.0,72,0.00,,---,0.00,VWS V14.01,2015-05-05 13:42:00,
2015-05-05 06:47:00,39.6,31.3,29.77,ESE,102,0.0,4.0,72,0.00,,---,0.00,VWS V14.01,2015-05-05 13:47:00,
2015-05-05 06:52:00,39.7,31.5,29.77,ESE,118,0.0,2.2,72,0.00,,---,0.00,VWS V14.01,2015-05-05 13:52:00,
2015-05-05 06:57:00,39.7,31.5,29.77,ESE,106,0.0,4.9,72,0.00,,---,0.00,VWS V14.01,2015-05-05 13:57:00,
2015-05-05 07:02:00,39.9,31.6,29.77,East,86,0.0,2.7,72,0.00,,---,0.00,VWS V14.01,2015-05-05 14:02:00,
2015-05-05 07:07:00,40.1,31.8,29.77,ESE,108,2.2,2.7,72,0.00,,---,0.00,VWS V14.01,2015-05-05 14:07:00,
2015-05-05 07:13:00,40.3,32.3,29.80,East,95,0.0,4.9,73,0.00,,---,0.00,VWS V14.01,2015-05-05 14:13:00,
2015-05-05 07:18:00,40.5,32.2,29.80,ESE,123,2.7,4.9,72,0.00,,---,0.00,VWS V14.01,2015-05-05 14:18:00,
2015-05-05 07:23:00,40.6,32.3,29.80,ESE,114,2.2,4.0,72,0.00,,---,0.00,VWS V14.01,2015-05-05 14:23:00,
2015-05-05 07:28:00,41.0,32.3,29.80,East,84,0.0,4.0,71,0.00,,---,0.00,VWS V14.01,2015-05-05 14:28:00,
2015-05-05 07:33:00,41.4,32.3,29.80,SE,144,0.0,5.4,70,0.00,,---,0.00,VWS V14.01,2015-05-05 14:33:00,
2015-05-05 07:38:00,41.7,32.7,29.80,ENE,58,0.0,5.4,70,0.00,,---,0.00,VWS V14.01,2015-05-05 14:38:00,
2015-05-05 07:43:00,42.1,32.7,29.80,ESE,110,0.0,3.6,69,0.00,,---,0.00,VWS V14.01,2015-05-05 14:43:00,
2015-05-05 07:48:00,42.3,32.8,29.80,East,88,0.0,3.6,69,0.00,,---,0.00,VWS V14.01,2015-05-05 14:48:00,
2015-05-05 07:53:00,42.3,33.2,29.80,NW,321,0.0,2.2,70,0.00,,---,0.00,VWS V14.01,2015-05-05 14:53:00,
2015-05-05 07:58:00,42.4,33.4,29.80,NNW,346,0.0,2.2,70,0.00,,---,0.00,VWS V14.01,2015-05-05 14:58:00,
2015-05-05 08:03:00,42.8,33.3,29.80,ENE,76,0.0,2.7,69,0.00,,---,0.00,VWS V14.01,2015-05-05 15:03:00,
2015-05-05 08:08:00,43.2,33.7,29.80,SSE,149,0.0,4.0,69,0.00,,---,0.00,VWS V14.01,2015-05-05 15:08:00,
2015-05-05 08:13:00,43.5,33.7,29.80,West,279,0.0,2.2,68,0.00,,---,0.00,VWS V14.01,2015-05-05 15:13:00,
2015-05-05 08:18:00,43.7,33.5,29.80,ESE,116,0.0,2.7,67,0.00,,---,0.00,VWS V14.01,2015-05-05 15:18:00,
2015-05-05 08:23:00,43.7,33.5,29.80,North,0,0.0,2.7,67,0.00,,---,0.00,VWS V14.01,2015-05-05 15:23:00,
2015-05-05 08:28:00,43.7,33.5,29.80,North,353,0.0,2.7,67,0.00,,---,0.00,VWS V14.01,2015-05-05 15:28:00,
2015-05-05 08:33:00,43.9,33.7,29.80,SE,130,0.0,4.9,67,0.00,,---,0.00,VWS V14.01,2015-05-05 15:33:00,
2015-05-05 08:38:00,44.1,33.4,29.80,SE,136,0.0,4.9,66,0.00,,---,0.00,VWS V14.01,2015-05-05 15:38:00,
2015-05-05 08:43:00,44.2,33.6,29.80,SE,124,0.0,2.7,66,0.00,,---,0.00,VWS V14.01,2015-05-05 15:43:00,
2015-05-05 08:48:00,44.6,33.6,29.80,SE,137,2.2,3.6,65,0.00,,---,0.00,VWS V14.01,2015-05-05 15:48:00,
2015-05-05 08:53:00,44.8,33.4,29.80,SE,131,0.0,6.3,64,0.00,,---,0.00,VWS V14.01,2015-05-05 15:53:00,
2015-05-05 08:58:00,45.0,33.5,29.80,East,79,4.9,6.3,64,0.00,,---,0.00,VWS V14.01,2015-05-05 15:58:00,
2015-05-05 09:03:00,45.1,33.3,29.80,South,182,0.0,6.3,63,0.00,,---,0.00,VWS V14.01,2015-05-05 16:03:00,
2015-05-05 09:08:00,45.3,33.1,29.80,SE,145,0.0,6.3,62,0.00,,---,0.00,VWS V14.01,2015-05-05 16:08:00,
2015-05-05 09:14:00,45.7,33.4,29.80,SSE,150,0.0,3.6,62,0.00,,---,0.00,VWS V14.01,2015-05-05 16:14:00,
2015-05-05 09:19:00,46.0,33.8,29.80,SSE,165,0.0,4.0,62,0.00,,---,0.00,VWS V14.01,2015-05-05 16:19:00,
2015-05-05 09:24:00,46.6,33.0,29.80,SSE,156,2.7,2.7,59,0.00,,---,0.00,VWS V14.01,2015-05-05 16:24:00,
2015-05-05 09:29:00,46.9,33.0,29.80,ENE,73,5.4,8.7,58,0.00,,---,0.00,VWS V14.01,2015-05-05 16:29:00,
2015-05-05 09:34:00,47.1,31.8,29.80,SSE,148,4.0,8.1,55,0.00,,---,0.00,VWS V14.01,2015-05-05 16:34:00,
2015-05-05 09:39:00,46.9,32.1,29.83,SE,143,4.0,8.1,56,0.00,,---,0.00,VWS V14.01,2015-05-05 16:39:00,
2015-05-05 09:44:00,46.8,32.3,29.83,SE,128,5.4,8.7,57,0.00,,---,0.00,VWS V14.01,2015-05-05 16:44:00,
2015-05-05 09:49:00,46.6,32.6,29.83,ESE,113,3.6,8.7,58,0.00,,---,0.00,VWS V14.01,2015-05-05 16:49:00,
2015-05-05 09:54:00,46.0,32.5,29.83,SE,143,2.7,10.1,59,0.00,,---,0.00,VWS V14.01,2015-05-05 16:54:00,
2015-05-05 09:59:00,45.9,32.8,29.83,WNW,293,0.0,10.1,60,0.00,,---,0.00,VWS V14.01,2015-05-05 16:59:00,
2015-05-05 10:04:00,45.9,33.2,29.83,ESE,122,0.0,2.7,61,0.00,,---,0.00,VWS V14.01,2015-05-05 17:04:00,
2015-05-05 10:09:00,45.9,33.2,29.83,ENE,62,3.1,4.9,61,0.00,,---,0.00,VWS V14.01,2015-05-05 17:09:00,
2015-05-05 10:14:00,45.9,33.6,29.83,East,79,0.0,6.3,62,0.00,,---,0.00,VWS V14.01,2015-05-05 17:14:00,
2015-05-05 10:19:00,45.9,33.6,29.83,SW,227,0.0,6.3,62,0.00,,---,0.00,VWS V14.01,2015-05-05 17:19:00,
2015-05-05 10:24:00,46.0,33.0,29.83,WSW,248,3.1,7.2,60,0.00,,---,0.00,VWS V14.01,2015-05-05 17:24:00,
2015-05-05 10:29:00,46.0,32.5,29.83,SE,138,0.0,7.2,59,0.00,,---,0.00,VWS V14.01,2015-05-05 17:29:00,
2015-05-05 10:34:00,46.2,32.7,29.83,ESE,122,5.4,5.4,59,0.00,,---,0.00,VWS V14.01,2015-05-05 17:34:00,
2015-05-05 10:39:00,46.6,31.7,29.83,South,189,3.1,5.4,56,0.00,,---,0.00,VWS V14.01,2015-05-05 17:39:00,
2015-05-05 10:44:00,46.9,31.2,29.83,East,88,5.4,8.3,54,0.00,,---,0.00,VWS V14.01,2015-05-05 17:44:00,
2015-05-05 10:49:00,47.3,30.6,29.83,ESE,107,4.5,8.3,52,0.00,,---,0.00,VWS V14.01,2015-05-05 17:49:00,
2015-05-05 10:54:00,47.8,30.6,29.83,East,93,6.3,8.1,51,0.00,,---,0.00,VWS V14.01,2015-05-05 17:54:00,
2015-05-05 10:59:00,48.6,30.8,29.83,SW,217,7.6,8.7,50,0.00,,---,0.00,VWS V14.01,2015-05-05 17:59:00,
2015-05-05 11:04:00,49.1,30.3,29.83,ESE,102,4.0,6.3,48,0.00,,---,0.00,VWS V14.01,2015-05-05 18:04:00,
2015-05-05 11:09:00,49.5,30.6,29.83,SSW,209,3.1,6.3,48,0.00,,---,0.00,VWS V14.01,2015-05-05 18:09:00,
2015-05-05 11:15:00,49.8,30.9,29.83,SSW,207,0.0,7.6,48,0.00,,---,0.00,VWS V14.01,2015-05-05 18:15:00,
2015-05-05 11:20:00,50.2,30.8,29.83,SSE,159,4.9,8.1,47,0.00,,---,0.00,VWS V14.01,2015-05-05 18:20:00,
2015-05-05 11:25:00,50.5,31.1,29.83,SE,127,0.0,5.4,47,0.00,,---,0.00,VWS V14.01,2015-05-05 18:25:00,
2015-05-05 11:30:00,51.1,31.6,29.83,SSW,204,5.4,8.3,47,0.00,,---,0.00,VWS V14.01,2015-05-05 18:30:00,
2015-05-05 11:35:00,51.6,31.0,29.83,SE,125,4.0,8.3,45,0.00,,---,0.00,VWS V14.01,2015-05-05 18:35:00,
2015-05-05 11:40:00,52.2,30.9,29.83,West,265,2.7,8.3,44,0.00,,---,0.00,VWS V14.01,2015-05-05 18:40:00,
2015-05-05 11:45:00,52.3,29.4,29.83,SW,221,2.2,8.3,41,0.00,,---,0.00,VWS V14.01,2015-05-05 18:45:00,
2015-05-05 11:50:00,52.9,29.8,29.83,SW,224,5.4,10.1,41,0.00,,---,0.00,VWS V14.01,2015-05-05 18:50:00,
2015-05-05 11:55:00,53.1,30.0,29.83,ESE,113,3.6,10.1,41,0.00,,---,0.00,VWS V14.01,2015-05-05 18:55:00,
2015-05-05 12:00:00,53.1,30.6,29.83,East,83,6.3,6.3,42,0.00,,---,0.00,VWS V14.01,2015-05-05 19:00:00,
2015-05-05 12:05:00,52.7,29.7,29.83,ESE,120,2.2,10.5,41,0.00,,---,0.00,VWS V14.01,2015-05-05 19:05:00,
2015-05-05 12:10:00,52.9,31.0,29.83,East,95,2.7,2.7,43,0.00,,---,0.00,VWS V14.01,2015-05-05 19:10:00,
2015-05-05 12:15:00,53.2,30.8,29.83,West,274,4.0,6.3,42,0.00,,---,0.00,VWS V14.01,2015-05-05 19:15:00,
2015-05-05 12:20:00,53.8,31.8,29.83,SE,125,3.1,5.4,43,0.00,,---,0.00,VWS V14.01,2015-05-05 19:20:00,
2015-05-05 12:25:00,54.0,31.4,29.83,West,265,0.0,12.3,42,0.00,,---,0.00,VWS V14.01,2015-05-05 19:25:00,
2015-05-05 12:30:00,54.7,32.6,29.83,North,0,3.1,4.9,43,0.00,,---,0.00,VWS V14.01,2015-05-05 19:30:00,
2015-05-05 12:35:00,54.9,31.0,29.83,ENE,64,3.6,8.3,40,0.00,,---,0.00,VWS V14.01,2015-05-05 19:35:00,
2015-05-05 12:40:00,54.7,30.9,29.83,ESE,116,3.6,3.6,40,0.00,,---,0.00,VWS V14.01,2015-05-05 19:40:00,
2015-05-05 12:45:00,54.7,30.2,29.83,SE,143,0.0,7.6,39,0.00,,---,0.00,VWS V14.01,2015-05-05 19:45:00,
2015-05-05 12:50:00,54.3,30.5,29.83,West,268,6.3,6.3,40,0.00,,---,0.00,VWS V14.01,2015-05-05 19:50:00,
2015-05-05 12:55:00,54.0,29.6,29.83,West,260,11.0,11.0,39,0.00,,---,0.00,VWS V14.01,2015-05-05 19:55:00,
2015-05-05 13:00:00,53.6,29.9,29.83,NE,54,4.9,4.9,40,0.00,,---,0.00,VWS V14.01,2015-05-05 20:00:00,
2015-05-05 13:05:00,53.8,30.0,29.83,ESE,118,5.8,5.8,40,0.00,,---,0.00,VWS V14.01,2015-05-05 20:05:00,
2015-05-05 13:11:00,53.8,29.4,29.83,North,6,2.7,3.6,39,0.00,,---,0.00,VWS V14.01,2015-05-05 20:11:00,
2015-05-05 13:16:00,54.1,30.4,29.83,SE,140,4.0,8.1,40,0.00,,---,0.00,VWS V14.01,2015-05-05 20:16:00,
2015-05-05 13:21:00,54.3,29.9,29.83,SE,137,3.1,4.9,39,0.00,,---,0.00,VWS V14.01,2015-05-05 20:21:00,
2015-05-05 13:26:00,54.1,29.8,29.83,ESE,104,0.0,8.3,39,0.00,,---,0.00,VWS V14.01,2015-05-05 20:26:00,
2015-05-05 13:31:00,54.5,30.1,29.83,South,169,3.1,3.1,39,0.00,,---,0.00,VWS V14.01,2015-05-05 20:31:00,
2015-05-05 13:36:00,55.0,30.5,29.83,East,85,5.8,5.8,39,0.00,,---,0.00,VWS V14.01,2015-05-05 20:36:00,
2015-05-05 13:41:00,55.2,30.1,29.83,ESE,122,3.6,5.8,38,0.00,,---,0.00,VWS V14.01,2015-05-05 20:41:00,
2015-05-05 13:46:00,55.6,30.4,29.83,SSW,202,4.0,6.3,38,0.00,,---,0.00,VWS V14.01,2015-05-05 20:46:00,
2015-05-05 13:51:00,55.8,30.6,29.83,ESE,111,6.3,6.3,38,0.00,,---,0.00,VWS V14.01,2015-05-05 20:51:00,
2015-05-05 13:56:00,55.9,31.4,29.83,ESE,123,5.8,7.2,39,0.00,,---,0.00,VWS V14.01,2015-05-05 20:56:00,
2015-05-05 14:01:00,55.9,31.4,29.83,East,88,4.0,8.1,39,0.00,,---,0.00,VWS V14.01,2015-05-05 21:01:00,
2015-05-05 14:06:00,55.8,31.8,29.83,West,266,2.7,8.7,40,0.00,,---,0.00,VWS V14.01,2015-05-05 21:06:00,
2015-05-05 14:11:00,55.6,31.7,29.83,ESE,110,3.6,3.6,40,0.00,,---,0.00,VWS V14.01,2015-05-05 21:11:00,
2015-05-05 14:16:00,55.8,32.4,29.83,SSE,158,3.1,5.8,41,0.00,,---,0.00,VWS V14.01,2015-05-05 21:16:00,
2015-05-05 14:21:00,54.5,31.3,29.83,ESE,119,5.4,5.4,41,0.00,,---,0.00,VWS V14.01,2015-05-05 21:21:00,
2015-05-05 14:26:00,52.7,30.9,29.86,SE,138,0.0,11.0,43,0.00,,---,0.00,VWS V14.01,2015-05-05 21:26:00,
2015-05-05 14:31:00,51.4,31.4,29.86,ESE,121,5.8,6.3,46,0.00,,---,0.00,VWS V14.01,2015-05-05 21:31:00,
2015-05-05 14:36:00,51.6,32.6,29.86,ENE,71,3.6,6.3,48,0.00,,---,0.00,VWS V14.01,2015-05-05 21:36:00,
2015-05-05 14:41:00,52.3,33.2,29.86,East,79,3.6,5.8,48,0.00,,---,0.00,VWS V14.01,2015-05-05 21:41:00,
2015-05-05 14:46:00,52.7,33.6,29.86,SE,140,5.4,8.7,48,0.00,,---,0.00,VWS V14.01,2015-05-05 21:46:00,
2015-05-05 14:51:00,52.5,33.4,29.86,South,183,4.0,8.3,48,0.00,,---,0.00,VWS V14.01,2015-05-05 21:51:00,
2015-05-05 14:56:00,51.8,32.2,29.86,SE,140,7.2,8.7,47,0.00,,---,0.00,VWS V14.01,2015-05-05 21:56:00,
2015-05-05 15:01:00,50.9,31.4,29.86,SSW,208,7.2,7.2,47,0.00,,---,0.00,VWS V14.01,2015-05-05 22:01:00,
2015-05-05 15:06:00,50.9,31.9,29.86,West,271,5.4,10.1,48,0.00,,---,0.00,VWS V14.01,2015-05-05 22:06:00,
2015-05-05 15:12:00,51.1,31.6,29.86,WNW,282,3.1,7.6,47,0.00,,---,0.00,VWS V14.01,2015-05-05 22:12:00,
2015-05-05 15:17:00,50.7,31.2,29.86,East,92,3.6,11.4,47,0.00,,---,0.00,VWS V14.01,2015-05-05 22:17:00,
2015-05-05 15:22:00,50.4,31.4,29.86,West,272,8.7,14.5,48,0.00,,---,0.00,VWS V14.01,2015-05-05 22:22:00,
2015-05-05 15:27:00,50.0,31.1,29.86,ENE,65,3.1,14.5,48,0.00,,---,0.00,VWS V14.01,2015-05-05 22:27:00,
2015-05-05 15:32:00,50.0,31.6,29.86,SE,144,6.7,8.1,49,0.00,,---,0.00,VWS V14.01,2015-05-05 22:32:00,
2015-05-05 15:37:00,50.2,31.3,29.86,ESE,108,3.6,8.1,48,0.00,,---,0.00,VWS V14.01,2015-05-05 22:37:00,
2015-05-05 15:42:00,50.5,31.6,29.86,East,96,4.0,4.9,48,0.00,,---,0.00,VWS V14.01,2015-05-05 22:42:00,
2015-05-05 15:47:00,50.9,30.9,29.86,ESE,108,2.2,6.3,46,0.00,,---,0.00,VWS V14.01,2015-05-05 22:47:00,
2015-05-05 15:52:00,50.9,30.9,29.86,ESE,117,7.6,8.7,46,0.00,,---,0.00,VWS V14.01,2015-05-05 22:52:00,
2015-05-05 15:57:00,50.9,30.9,29.83,SE,126,5.4,8.7,46,0.00,,---,0.00,VWS V14.01,2015-05-05 22:57:00,
2015-05-05 16:02:00,50.9,30.3,29.83,SSW,209,12.8,12.8,45,0.00,,---,0.00,VWS V14.01,2015-05-05 23:02:00,
2015-05-05 16:07:00,50.5,29.5,29.83,SE,143,2.2,12.8,44,0.00,,---,0.00,VWS V14.01,2015-05-05 23:07:00,
2015-05-05 16:12:00,50.2,29.7,29.86,SE,128,3.1,7.6,45,0.00,,---,0.00,VWS V14.01,2015-05-05 23:12:00,
2015-05-05 16:17:00,50.4,30.4,29.86,East,89,4.0,7.6,46,0.00,,---,0.00,VWS V14.01,2015-05-05 23:17:00,
2015-05-05 16:22:00,50.5,30.5,29.86,SE,143,4.0,4.0,46,0.00,,---,0.00,VWS V14.01,2015-05-05 23:22:00,
2015-05-05 16:27:00,50.5,30.0,29.86,NNE,13,2.7,6.7,45,0.00,,---,0.00,VWS V14.01,2015-05-05 23:27:00,
2015-05-05 16:32:00,50.5,29.5,29.86,SSE,152,4.9,8.1,44,0.00,,---,0.00,VWS V14.01,2015-05-05 23:32:00,
2015-05-05 16:37:00,50.7,29.6,29.86,SSW,206,5.8,8.1,44,0.00,,---,0.00,VWS V14.01,2015-05-05 23:37:00,
2015-05-05 16:42:00,51.1,29.4,29.86,WSW,247,3.1,8.1,43,0.00,,---,0.00,VWS V14.01,2015-05-05 23:42:00,
2015-05-05 16:47:00,51.1,29.4,29.86,West,274,2.7,8.1,43,0.00,,---,0.00,VWS V14.01,2015-05-05 23:47:00,
2015-05-05 16:52:00,51.1,29.4,29.86,SSW,207,6.3,6.3,43,0.00,,---,0.00,VWS V14.01,2015-05-05 23:52:00,
2015-05-05 16:57:00,50.9,30.3,29.86,SSW,202,5.4,10.5,45,0.00,,---,0.00,VWS V14.01,2015-05-05 23:57:00,
2015-05-05 17:02:00,50.5,31.1,29.86,South,179,5.4,11.0,47,0.00,,---,0.00,VWS V14.01,2015-05-06 00:02:00,
2015-05-05 17:07:00,50.2,30.8,29.86,SSW,192,5.4,11.0,47,0.00,,---,0.00,VWS V14.01,2015-05-06 00:07:00,
2015-05-05 17:13:00,49.6,30.8,29.86,South,191,4.9,8.3,48,0.00,,---,0.00,VWS V14.01,2015-05-06 00:13:00,
2015-05-05 17:18:00,49.1,30.8,29.86,WSW,239,3.1,8.3,49,0.00,,---,0.00,VWS V14.01,2015-05-06 00:18:00,
2015-05-05 17:23:00,48.7,31.0,29.86,SSW,213,0.0,5.8,50,0.00,,---,0.00,VWS V14.01,2015-05-06 00:23:00,
2015-05-05 17:28:00,48.6,30.8,29.86,WSW,254,0.0,5.8,50,0.00,,---,0.00,VWS V14.01,2015-05-06 00:28:00,
2015-05-05 17:33:00,48.4,30.6,29.86,SW,214,6.3,6.3,50,0.00,,---,0.00,VWS V14.01,2015-05-06 00:33:00,
2015-05-05 17:38:00,48.2,30.9,29.86,South,175,0.0,6.3,51,0.00,,---,0.00,VWS V14.01,2015-05-06 00:38:00,
2015-05-05 17:43:00,48.0,30.8,29.86,WSW,258,0.0,4.9,51,0.00,,---,0.00,VWS V14.01,2015-05-06 00:43:00,